Wolke Sonne

Wetter Roßtal

Gehe zu: Ammerndorf

Tageswerte vom Freitag, 02.12.2022

Optionen

Tag:
Erweitert:

Alle Werte vom Freitag, 02.12.2022

Einen Moment bitte, die Daten werden aufbereitet...

UhrzeitTemperaturFeuchteLuftdruckNiederschlagEvapotranspirationNiederschlag?WindWindböenRegenrateWindrichtungHelligkeitSolarstrahlungUV-IndexSonne?Feinstaub 10µmFeinstaub 2,5µmUhrzeit
Diagramm IconDiagramm IconDiagramm IconDiagramm IconDiagramm IconDiagramm IconDiagramm IconDiagramm IconDiagramm IconDiagramm IconDiagramm IconDiagramm IconDiagramm IconDiagramm IconDiagramm IconDiagramm Icon
00:003,3 °C 93 % - 0,0 mm 0,0 mm nein 0,0 km/h 3,2 km/h 0,0 mm/h OSO 0,000 klux 0,0 W/qm 0,0 nein 7,56 µg/m³ 5,31 µg/m³ 00:00
00:053,3 °C 93 % - 0,0 mm 0,0 mm nein 0,0 km/h 1,6 km/h 0,0 mm/h OSO 0,000 klux 0,0 W/qm 0,0 nein 7,80 µg/m³ 5,23 µg/m³ 00:05
00:103,3 °C 93 % - 0,0 mm 0,0 mm nein 0,0 km/h 1,6 km/h 0,0 mm/h OSO 0,000 klux 0,0 W/qm 0,0 nein 6,18 µg/m³ 4,50 µg/m³ 00:10
00:153,3 °C 93 % - 0,0 mm 0,0 mm nein 0,0 km/h 1,6 km/h 0,0 mm/h OSO 0,000 klux 0,0 W/qm 0,0 nein 5,45 µg/m³ 4,11 µg/m³ 00:15
00:203,3 °C 93 % - 0,0 mm 0,0 mm nein 0,0 km/h 3,2 km/h 0,0 mm/h OSO 0,000 klux 0,0 W/qm 0,0 nein 5,60 µg/m³ 4,19 µg/m³ 00:20
00:253,3 °C 93 % - 0,0 mm 0,0 mm nein 0,0 km/h 1,6 km/h 0,0 mm/h OSO 0,000 klux 0,0 W/qm 0,0 nein 6,95 µg/m³ 4,70 µg/m³ 00:25
00:303,3 °C 93 % - 0,0 mm 0,0 mm nein 0,0 km/h 3,2 km/h 0,0 mm/h OSO 0,000 klux 0,0 W/qm 0,0 nein 6,82 µg/m³ 5,11 µg/m³ 00:30
00:353,3 °C 93 % - 0,0 mm 0,0 mm nein 0,0 km/h 1,6 km/h 0,0 mm/h OSO 0,000 klux 0,0 W/qm 0,0 nein 6,11 µg/m³ 4,64 µg/m³ 00:35
00:403,3 °C 93 % - 0,0 mm 0,0 mm nein 1,6 km/h 6,4 km/h 0,0 mm/h OSO 0,000 klux 0,0 W/qm 0,0 nein 6,30 µg/m³ 4,40 µg/m³ 00:40
00:453,3 °C 93 % - 0,0 mm 0,0 mm nein 3,2 km/h 8,0 km/h 0,0 mm/h OSO 0,000 klux 0,0 W/qm 0,0 nein 6,73 µg/m³ 4,48 µg/m³ 00:45
00:503,3 °C 93 % - 0,0 mm 0,0 mm nein 3,2 km/h 6,4 km/h 0,0 mm/h OSO 0,000 klux 0,0 W/qm 0,0 nein 6,99 µg/m³ 4,51 µg/m³ 00:50
00:553,3 °C 93 % - 0,0 mm 0,0 mm nein 1,6 km/h 3,2 km/h 0,0 mm/h OSO 0,000 klux 0,0 W/qm 0,0 nein 6,94 µg/m³ 4,57 µg/m³ 00:55
01:003,3 °C 93 % - 0,0 mm 0,0 mm nein 1,6 km/h 3,2 km/h 0,0 mm/h OSO 0,000 klux 0,0 W/qm 0,0 nein 7,21 µg/m³ 4,59 µg/m³ 01:00
01:052,8 °C 93 % - 0,0 mm 0,0 mm nein 3,2 km/h 6,4 km/h 0,0 mm/h OSO 0,000 klux 0,0 W/qm 0,0 nein 7,17 µg/m³ 4,87 µg/m³ 01:05
01:102,8 °C 93 % - 0,0 mm 0,0 mm nein 3,2 km/h 6,4 km/h 0,0 mm/h ONO 0,000 klux 0,0 W/qm 0,0 nein 7,37 µg/m³ 4,97 µg/m³ 01:10
01:152,8 °C 93 % - 0,0 mm 0,0 mm nein 3,2 km/h 4,8 km/h 0,0 mm/h SSO 0,000 klux 0,0 W/qm 0,0 nein 7,07 µg/m³ 4,83 µg/m³ 01:15
01:202,8 °C 93 % - 0,0 mm 0,0 mm nein 0,0 km/h 1,6 km/h 0,0 mm/h SSO 0,000 klux 0,0 W/qm 0,0 nein 8,00 µg/m³ 5,06 µg/m³ 01:20
01:252,8 °C 93 % - 0,0 mm 0,0 mm nein 1,6 km/h 4,8 km/h 0,0 mm/h SSO 0,000 klux 0,0 W/qm 0,0 nein 7,66 µg/m³ 5,18 µg/m³ 01:25
01:302,8 °C 93 % - 0,0 mm 0,0 mm nein 0,0 km/h 3,2 km/h 0,0 mm/h SSO 0,000 klux 0,0 W/qm 0,0 nein 9,78 µg/m³ 6,25 µg/m³ 01:30
01:352,8 °C 93 % - 0,0 mm 0,0 mm nein 1,6 km/h 4,8 km/h 0,0 mm/h SSO 0,000 klux 0,0 W/qm 0,0 nein 13,40 µg/m³ 8,68 µg/m³ 01:35
01:402,8 °C 93 % - 0,0 mm 0,0 mm nein 1,6 km/h 6,4 km/h 0,0 mm/h SSO 0,000 klux 0,0 W/qm 0,0 nein 8,66 µg/m³ 5,79 µg/m³ 01:40
01:452,8 °C 93 % - 0,0 mm 0,0 mm nein 0,0 km/h 4,8 km/h 0,0 mm/h SSO 0,000 klux 0,0 W/qm 0,0 nein 7,80 µg/m³ 5,11 µg/m³ 01:45
01:502,8 °C 93 % - 0,0 mm 0,0 mm nein 1,6 km/h 3,2 km/h 0,0 mm/h SSO 0,000 klux 0,0 W/qm 0,0 nein 7,09 µg/m³ 4,75 µg/m³ 01:50
01:552,8 °C 93 % - 0,0 mm 0,0 mm nein 0,0 km/h 3,2 km/h 0,0 mm/h SSO 0,000 klux 0,0 W/qm 0,0 nein 7,95 µg/m³ 5,44 µg/m³ 01:55
UhrzeitTemperaturFeuchteLuftdruckNiederschlagEvapotranspirationNiederschlag?WindWindböenRegenrateWindrichtungHelligkeitSolarstrahlungUV-IndexSonne?Feinstaub 10µmFeinstaub 2,5µmUhrzeit
02:002,8 °C 93 % - 0,0 mm 0,0 mm nein 1,6 km/h 3,2 km/h 0,0 mm/h SSO 0,000 klux 0,0 W/qm 0,0 nein 7,80 µg/m³ 5,53 µg/m³ 02:00
02:052,8 °C 93 % - 0,0 mm 0,0 mm nein 1,6 km/h 4,8 km/h 0,0 mm/h SSO 0,000 klux 0,0 W/qm 0,0 nein 8,85 µg/m³ 5,70 µg/m³ 02:05
02:102,8 °C 93 % - 0,0 mm 0,0 mm nein 1,6 km/h 6,4 km/h 0,0 mm/h SO 0,000 klux 0,0 W/qm 0,0 nein 8,05 µg/m³ 5,36 µg/m³ 02:10
02:152,8 °C 93 % - 0,0 mm 0,0 mm nein 1,6 km/h 4,8 km/h 0,0 mm/h SO 0,000 klux 0,0 W/qm 0,0 nein 7,31 µg/m³ 5,45 µg/m³ 02:15
02:202,8 °C 93 % - 0,0 mm 0,0 mm nein 1,6 km/h 4,8 km/h 0,0 mm/h SO 0,000 klux 0,0 W/qm 0,0 nein 10,30 µg/m³ 6,02 µg/m³ 02:20
02:252,8 °C 93 % - 0,0 mm 0,0 mm nein 3,2 km/h 6,4 km/h 0,0 mm/h OSO 0,000 klux 0,0 W/qm 0,0 nein 9,51 µg/m³ 6,00 µg/m³ 02:25
02:302,8 °C 93 % - 0,0 mm 0,0 mm nein 3,2 km/h 9,7 km/h 0,0 mm/h OSO 0,000 klux 0,0 W/qm 0,0 nein 10,27 µg/m³ 6,60 µg/m³ 02:30
02:352,8 °C 93 % - 0,0 mm 0,0 mm nein 3,2 km/h 8,0 km/h 0,0 mm/h OSO 0,000 klux 0,0 W/qm 0,0 nein 10,50 µg/m³ 6,68 µg/m³ 02:35
02:402,8 °C 93 % - 0,0 mm 0,0 mm nein 1,6 km/h 4,8 km/h 0,0 mm/h OSO 0,000 klux 0,0 W/qm 0,0 nein 8,23 µg/m³ 5,45 µg/m³ 02:40
02:452,8 °C 93 % - 0,0 mm 0,0 mm nein 1,6 km/h 4,8 km/h 0,0 mm/h OSO 0,000 klux 0,0 W/qm 0,0 nein 9,09 µg/m³ 5,79 µg/m³ 02:45
02:502,8 °C 93 % - 0,0 mm 0,0 mm nein 1,6 km/h 4,8 km/h 0,0 mm/h OSO 0,000 klux 0,0 W/qm 0,0 nein 7,92 µg/m³ 5,33 µg/m³ 02:50
02:552,8 °C 93 % - 0,0 mm 0,0 mm nein 1,6 km/h 4,8 km/h 0,0 mm/h OSO 0,000 klux 0,0 W/qm 0,0 nein 9,65 µg/m³ 5,82 µg/m³ 02:55
03:002,8 °C 93 % - 0,0 mm 0,0 mm nein 1,6 km/h 4,8 km/h 0,0 mm/h OSO 0,000 klux 0,0 W/qm 0,0 nein 10,30 µg/m³ 6,55 µg/m³ 03:00
03:052,8 °C 93 % - 0,0 mm 0,0 mm nein 1,6 km/h 4,8 km/h 0,0 mm/h OSO 0,000 klux 0,0 W/qm 0,0 nein 9,63 µg/m³ 6,06 µg/m³ 03:05
03:102,8 °C 93 % - 0,0 mm 0,0 mm nein 1,6 km/h 4,8 km/h 0,0 mm/h OSO 0,000 klux 0,0 W/qm 0,0 nein - - 03:10
03:152,8 °C 93 % - 0,2 mm 0,0 mm ja 3,2 km/h 6,4 km/h 0,0 mm/h OSO 0,000 klux 0,0 W/qm 0,0 nein 9,86 µg/m³ 6,19 µg/m³ 03:15
03:202,8 °C 93 % - 0,0 mm 0,0 mm nein 3,2 km/h 8,0 km/h 0,0 mm/h OSO 0,000 klux 0,0 W/qm 0,0 nein 10,31 µg/m³ 5,93 µg/m³ 03:20
03:252,8 °C 93 % - 0,0 mm 0,0 mm nein 3,2 km/h 6,4 km/h 0,0 mm/h OSO 0,000 klux 0,0 W/qm 0,0 nein 10,84 µg/m³ 6,19 µg/m³ 03:25
03:302,8 °C 93 % - 0,0 mm 0,0 mm nein 3,2 km/h 9,7 km/h 0,0 mm/h SO 0,000 klux 0,0 W/qm 0,0 nein 11,89 µg/m³ 6,81 µg/m³ 03:30
03:352,8 °C 93 % - 0,0 mm 0,0 mm nein 3,2 km/h 9,7 km/h 0,0 mm/h SO 0,000 klux 0,0 W/qm 0,0 nein 10,42 µg/m³ 6,26 µg/m³ 03:35
03:402,8 °C 93 % - 0,0 mm 0,0 mm nein 3,2 km/h 14,5 km/h 0,0 mm/h OSO 0,000 klux 0,0 W/qm 0,0 nein 11,66 µg/m³ 6,36 µg/m³ 03:40
03:452,8 °C 93 % - 0,0 mm 0,0 mm nein 3,2 km/h 11,3 km/h 0,0 mm/h SO 0,000 klux 0,0 W/qm 0,0 nein 10,69 µg/m³ 6,05 µg/m³ 03:45
03:502,2 °C 93 % - 0,0 mm 0,0 mm nein 4,8 km/h 14,5 km/h 0,0 mm/h O 0,000 klux 0,0 W/qm 0,0 nein 11,80 µg/m³ 6,58 µg/m³ 03:50
03:552,2 °C 93 % - 0,0 mm 0,0 mm nein 4,8 km/h 12,9 km/h 0,0 mm/h OSO 0,000 klux 0,0 W/qm 0,0 nein 11,19 µg/m³ 6,74 µg/m³ 03:55
UhrzeitTemperaturFeuchteLuftdruckNiederschlagEvapotranspirationNiederschlag?WindWindböenRegenrateWindrichtungHelligkeitSolarstrahlungUV-IndexSonne?Feinstaub 10µmFeinstaub 2,5µmUhrzeit
04:002,2 °C 93 % - 0,2 mm 0,0 mm ja 4,8 km/h 12,9 km/h 0,0 mm/h SO 0,000 klux 0,0 W/qm 0,0 nein 11,42 µg/m³ 6,41 µg/m³ 04:00
04:052,2 °C 93 % - 0,0 mm 0,0 mm nein 4,8 km/h 11,3 km/h 0,0 mm/h OSO 0,000 klux 0,0 W/qm 0,0 nein 9,79 µg/m³ 6,02 µg/m³ 04:05
04:102,2 °C 93 % - 0,0 mm 0,0 mm nein 3,2 km/h 9,7 km/h 0,0 mm/h SO 0,000 klux 0,0 W/qm 0,0 nein 11,45 µg/m³ 6,48 µg/m³ 04:10
04:152,2 °C 93 % - 0,0 mm 0,0 mm nein 3,2 km/h 4,8 km/h 0,0 mm/h OSO 0,000 klux 0,0 W/qm 0,0 nein 10,97 µg/m³ 6,36 µg/m³ 04:15
04:202,2 °C 93 % - 0,0 mm 0,0 mm nein 1,6 km/h 6,4 km/h 0,0 mm/h OSO 0,000 klux 0,0 W/qm 0,0 nein 13,29 µg/m³ 7,33 µg/m³ 04:20
04:252,2 °C 93 % - 0,0 mm 0,0 mm nein 1,6 km/h 6,4 km/h 0,0 mm/h OSO 0,000 klux 0,0 W/qm 0,0 nein 11,89 µg/m³ 6,80 µg/m³ 04:25
04:302,2 °C 93 % - 0,0 mm 0,0 mm nein 1,6 km/h 8,0 km/h 0,0 mm/h OSO 0,000 klux 0,0 W/qm 0,0 nein 11,32 µg/m³ 6,57 µg/m³ 04:30
04:352,2 °C 93 % - 0,0 mm 0,0 mm nein 3,2 km/h 6,4 km/h 0,0 mm/h ONO 0,000 klux 0,0 W/qm 0,0 nein 14,03 µg/m³ 7,04 µg/m³ 04:35
04:402,2 °C 93 % - 0,0 mm 0,0 mm nein 3,2 km/h 6,4 km/h 0,0 mm/h O 0,000 klux 0,0 W/qm 0,0 nein 11,68 µg/m³ 6,92 µg/m³ 04:40
04:452,2 °C 93 % - 0,0 mm 0,0 mm nein 1,6 km/h 6,4 km/h 0,0 mm/h OSO 0,000 klux 0,0 W/qm 0,0 nein 12,74 µg/m³ 7,16 µg/m³ 04:45
04:502,2 °C 93 % - 0,0 mm 0,0 mm nein 1,6 km/h 3,2 km/h 0,0 mm/h OSO 0,000 klux 0,0 W/qm 0,0 nein 13,19 µg/m³ 7,52 µg/m³ 04:50
04:552,2 °C 94 % - 0,0 mm 0,0 mm nein 1,6 km/h 6,4 km/h 0,0 mm/h OSO 0,000 klux 0,0 W/qm 0,0 nein 13,02 µg/m³ 7,45 µg/m³ 04:55
05:002,2 °C 94 % - 0,0 mm 0,0 mm nein 1,6 km/h 8,0 km/h 0,0 mm/h OSO 0,000 klux 0,0 W/qm 0,0 nein 9,90 µg/m³ 6,07 µg/m³ 05:00
05:052,2 °C 94 % - 0,0 mm 0,0 mm nein 1,6 km/h 6,4 km/h 0,0 mm/h O 0,000 klux 0,0 W/qm 0,0 nein 10,59 µg/m³ 5,90 µg/m³ 05:05
05:102,2 °C 94 % - 0,0 mm 0,0 mm nein 1,6 km/h 6,4 km/h 0,0 mm/h O 0,000 klux 0,0 W/qm 0,0 nein 11,06 µg/m³ 5,47 µg/m³ 05:10
05:152,2 °C 94 % - 0,0 mm 0,0 mm nein 1,6 km/h 4,8 km/h 0,0 mm/h O 0,000 klux 0,0 W/qm 0,0 nein 11,43 µg/m³ 5,87 µg/m³ 05:15
05:202,2 °C 94 % - 0,0 mm 0,0 mm nein 1,6 km/h 6,4 km/h 0,0 mm/h OSO 0,000 klux 0,0 W/qm 0,0 nein 10,85 µg/m³ 5,94 µg/m³ 05:20
05:252,2 °C 94 % - 0,0 mm 0,0 mm nein 1,6 km/h 6,4 km/h 0,0 mm/h OSO 0,000 klux 0,0 W/qm 0,0 nein 9,93 µg/m³ 5,93 µg/m³ 05:25
05:302,2 °C 94 % - 0,0 mm 0,0 mm nein 1,6 km/h 4,8 km/h 0,0 mm/h OSO 0,000 klux 0,0 W/qm 0,0 nein 12,15 µg/m³ 7,11 µg/m³ 05:30
05:352,2 °C 94 % - 0,0 mm 0,0 mm nein 1,6 km/h 3,2 km/h 0,0 mm/h OSO 0,000 klux 0,0 W/qm 0,0 nein 11,25 µg/m³ 6,24 µg/m³ 05:35
05:402,2 °C 94 % - 0,0 mm 0,0 mm nein 0,0 km/h 3,2 km/h 0,0 mm/h OSO 0,000 klux 0,0 W/qm 0,0 nein 9,21 µg/m³ 5,28 µg/m³ 05:40
05:452,2 °C 94 % - 0,0 mm 0,0 mm nein 1,6 km/h 3,2 km/h 0,0 mm/h OSO 0,000 klux 0,0 W/qm 0,0 nein 11,13 µg/m³ 6,46 µg/m³ 05:45
05:502,2 °C 94 % - 0,0 mm 0,0 mm nein 1,6 km/h 4,8 km/h 0,0 mm/h OSO 0,000 klux 0,0 W/qm 0,0 nein 9,76 µg/m³ 5,45 µg/m³ 05:50
05:552,2 °C 94 % - 0,0 mm 0,0 mm nein 3,2 km/h 8,0 km/h 0,0 mm/h O 0,000 klux 0,0 W/qm 0,0 nein 10,79 µg/m³ 6,34 µg/m³ 05:55
UhrzeitTemperaturFeuchteLuftdruckNiederschlagEvapotranspirationNiederschlag?WindWindböenRegenrateWindrichtungHelligkeitSolarstrahlungUV-IndexSonne?Feinstaub 10µmFeinstaub 2,5µmUhrzeit
06:002,2 °C 94 % - 0,0 mm 0,0 mm nein 1,6 km/h 4,8 km/h 0,0 mm/h O 0,000 klux 0,0 W/qm 0,0 nein 7,50 µg/m³ 4,41 µg/m³ 06:00
06:052,2 °C 94 % - 0,0 mm 0,0 mm nein 1,6 km/h 8,0 km/h 0,0 mm/h O 0,000 klux 0,0 W/qm 0,0 nein 8,49 µg/m³ 4,91 µg/m³ 06:05
06:102,2 °C 94 % - 0,0 mm 0,0 mm nein 1,6 km/h 4,8 km/h 0,0 mm/h O 0,000 klux 0,0 W/qm 0,0 nein 10,26 µg/m³ 5,45 µg/m³ 06:10
06:152,2 °C 94 % - 0,0 mm 0,0 mm nein 3,2 km/h 8,0 km/h 0,0 mm/h O 0,000 klux 0,0 W/qm 0,0 nein 9,26 µg/m³ 5,47 µg/m³ 06:15
06:202,2 °C 94 % - 0,0 mm 0,0 mm nein 1,6 km/h 4,8 km/h 0,0 mm/h ONO 0,000 klux 0,0 W/qm 0,0 nein 10,06 µg/m³ 5,87 µg/m³ 06:20
06:252,2 °C 94 % - 0,0 mm 0,0 mm nein 1,6 km/h 4,8 km/h 0,0 mm/h ONO 0,000 klux 0,0 W/qm 0,0 nein 8,57 µg/m³ 5,05 µg/m³ 06:25
06:301,7 °C 94 % - 0,0 mm 0,0 mm nein 1,6 km/h 4,8 km/h 0,0 mm/h O 0,000 klux 0,0 W/qm 0,0 nein 8,15 µg/m³ 4,67 µg/m³ 06:30
06:351,7 °C 94 % - 0,0 mm 0,0 mm nein 0,0 km/h 4,8 km/h 0,0 mm/h O 0,000 klux 0,0 W/qm 0,0 nein 8,48 µg/m³ 4,92 µg/m³ 06:35
06:401,7 °C 94 % - 0,0 mm 0,0 mm nein 1,6 km/h 4,8 km/h 0,0 mm/h O 0,000 klux 0,0 W/qm 0,0 nein 7,54 µg/m³ 4,61 µg/m³ 06:40
06:451,7 °C 94 % - 0,0 mm 0,0 mm nein 3,2 km/h 8,0 km/h 0,0 mm/h ONO 0,000 klux 0,0 W/qm 0,0 nein 8,04 µg/m³ 4,81 µg/m³ 06:45
06:501,7 °C 94 % - 0,0 mm 0,0 mm nein 4,8 km/h 11,3 km/h 0,0 mm/h O 0,000 klux 0,0 W/qm 0,0 nein 8,54 µg/m³ 4,91 µg/m³ 06:50
06:551,7 °C 94 % - 0,0 mm 0,0 mm nein 3,2 km/h 9,7 km/h 0,0 mm/h O 0,000 klux 0,0 W/qm 0,0 nein 7,18 µg/m³ 4,53 µg/m³ 06:55
07:001,7 °C 94 % - 0,0 mm 0,0 mm nein 4,8 km/h 11,3 km/h 0,0 mm/h O 0,000 klux 0,0 W/qm 0,0 nein 9,16 µg/m³ 4,92 µg/m³ 07:00
07:051,7 °C 94 % - 0,0 mm 0,0 mm nein 1,6 km/h 6,4 km/h 0,0 mm/h ONO 0,000 klux 0,0 W/qm 0,0 nein 6,97 µg/m³ 4,49 µg/m³ 07:05
07:101,7 °C 94 % - 0,0 mm 0,0 mm nein 1,6 km/h 4,8 km/h 0,0 mm/h ONO 0,000 klux 0,0 W/qm 0,0 nein 6,71 µg/m³ 4,17 µg/m³ 07:10
07:151,7 °C 94 % - 0,0 mm 0,0 mm nein 1,6 km/h 4,8 km/h 0,0 mm/h ONO 0,000 klux 0,0 W/qm 0,0 nein 7,17 µg/m³ 4,62 µg/m³ 07:15
07:201,7 °C 94 % - 0,0 mm 0,0 mm nein 1,6 km/h 6,4 km/h 0,0 mm/h ONO 0,000 klux 0,0 W/qm 0,0 nein 8,12 µg/m³ 4,91 µg/m³ 07:20
07:251,7 °C 94 % - 0,0 mm 0,0 mm nein 1,6 km/h 6,4 km/h 0,0 mm/h ONO 0,000 klux 0,0 W/qm 0,0 nein 8,07 µg/m³ 4,88 µg/m³ 07:25
07:301,7 °C 94 % - 0,0 mm 0,0 mm nein 1,6 km/h 4,8 km/h 0,0 mm/h O 0,000 klux 0,0 W/qm 0,0 nein 6,64 µg/m³ 4,36 µg/m³ 07:30
07:351,7 °C 94 % - 0,0 mm 0,0 mm nein 3,2 km/h 8,0 km/h 0,0 mm/h O 0,000 klux 0,0 W/qm 0,0 nein 6,74 µg/m³ 4,34 µg/m³ 07:35
07:401,7 °C 94 % - 0,0 mm 0,0 mm nein 3,2 km/h 9,7 km/h 0,0 mm/h O 0,000 klux 0,0 W/qm 0,0 nein 6,79 µg/m³ 4,16 µg/m³ 07:40
07:451,7 °C 94 % - 0,0 mm 0,0 mm nein 3,2 km/h 4,8 km/h 0,0 mm/h O 0,000 klux 0,0 W/qm 0,0 nein 6,83 µg/m³ 4,49 µg/m³ 07:45
07:501,7 °C 94 % - 0,0 mm 0,0 mm nein 1,6 km/h 6,4 km/h 0,0 mm/h O 0,000 klux 0,0 W/qm 0,0 nein 6,78 µg/m³ 4,30 µg/m³ 07:50
07:551,1 °C 94 % - 0,0 mm 0,0 mm nein 3,2 km/h 8,0 km/h 0,0 mm/h ONO 0,000 klux 0,0 W/qm 0,0 nein 7,01 µg/m³ 4,44 µg/m³ 07:55
UhrzeitTemperaturFeuchteLuftdruckNiederschlagEvapotranspirationNiederschlag?WindWindböenRegenrateWindrichtungHelligkeitSolarstrahlungUV-IndexSonne?Feinstaub 10µmFeinstaub 2,5µmUhrzeit
08:001,1 °C 95 % - 0,0 mm 0,0 mm nein 3,2 km/h 8,0 km/h 0,0 mm/h OSO 0,000 klux 0,0 W/qm 0,0 nein 5,16 µg/m³ 3,36 µg/m³ 08:00
08:051,1 °C 95 % - 0,0 mm 0,0 mm nein 1,6 km/h 4,8 km/h 0,0 mm/h O 0,000 klux 0,0 W/qm 0,0 nein 5,77 µg/m³ 3,80 µg/m³ 08:05
08:101,1 °C 95 % - 0,0 mm 0,0 mm nein 3,2 km/h 8,0 km/h 0,0 mm/h OSO 0,000 klux 0,0 W/qm 0,0 nein 6,68 µg/m³ 3,86 µg/m³ 08:10
08:151,1 °C 95 % - 0,0 mm 0,0 mm nein 1,6 km/h 6,4 km/h 0,0 mm/h O 0,000 klux 0,0 W/qm 0,0 nein 6,86 µg/m³ 4,23 µg/m³ 08:15
08:201,1 °C 95 % - 0,0 mm 0,0 mm nein 3,2 km/h 8,0 km/h 0,0 mm/h O 0,000 klux 0,0 W/qm 0,0 nein 7,98 µg/m³ 5,37 µg/m³ 08:20
08:251,1 °C 95 % - 0,0 mm 0,0 mm nein 0,0 km/h 3,2 km/h 0,0 mm/h O 0,000 klux 4,0 W/qm 0,0 nein 5,95 µg/m³ 3,71 µg/m³ 08:25
08:301,1 °C 95 % - 0,0 mm 0,0 mm nein 3,2 km/h 4,8 km/h 0,0 mm/h O 0,000 klux 9,0 W/qm 0,0 nein 5,81 µg/m³ 3,80 µg/m³ 08:30
08:351,1 °C 95 % - 0,0 mm 0,0 mm nein 1,6 km/h 4,8 km/h 0,0 mm/h O 0,000 klux 14,0 W/qm 0,0 nein 6,07 µg/m³ 3,81 µg/m³ 08:35
08:401,1 °C 95 % - 0,0 mm 0,0 mm nein 1,6 km/h 6,4 km/h 0,0 mm/h O 0,000 klux 17,0 W/qm 0,0 nein 4,71 µg/m³ 3,15 µg/m³ 08:40
08:451,1 °C 95 % - 0,0 mm 0,0 mm nein 1,6 km/h 6,4 km/h 0,0 mm/h O 0,000 klux 18,0 W/qm 0,0 nein 5,71 µg/m³ 3,94 µg/m³ 08:45
08:501,1 °C 95 % - 0,0 mm 0,0 mm nein 1,6 km/h 6,4 km/h 0,0 mm/h O 0,000 klux 12,0 W/qm 0,0 nein 5,27 µg/m³ 3,15 µg/m³ 08:50
08:551,1 °C 95 % - 0,0 mm 0,0 mm nein 1,6 km/h 4,8 km/h 0,0 mm/h O 0,000 klux 13,0 W/qm 0,0 nein 5,06 µg/m³ 3,37 µg/m³ 08:55
09:001,1 °C 95 % - 0,0 mm 0,0 mm nein 3,2 km/h 6,4 km/h 0,0 mm/h O 0,000 klux 13,0 W/qm 0,0 nein 5,87 µg/m³ 3,54 µg/m³ 09:00
09:051,1 °C 95 % - 0,0 mm 0,0 mm nein 1,6 km/h 6,4 km/h 0,0 mm/h O 0,000 klux 11,0 W/qm 0,0 nein 5,42 µg/m³ 3,32 µg/m³ 09:05
09:101,1 °C 95 % - 0,0 mm 0,0 mm nein 1,6 km/h 6,4 km/h 0,0 mm/h O 0,000 klux 11,0 W/qm 0,0 nein 5,61 µg/m³ 3,52 µg/m³ 09:10
09:151,1 °C 95 % - 0,0 mm 0,0 mm nein 3,2 km/h 6,4 km/h 0,0 mm/h O 0,000 klux 13,0 W/qm 0,0 nein 5,57 µg/m³ 3,53 µg/m³ 09:15
09:201,1 °C 95 % - 0,0 mm 0,0 mm nein 1,6 km/h 4,8 km/h 0,0 mm/h O 0,000 klux 16,0 W/qm 0,0 nein 5,57 µg/m³ 3,62 µg/m³ 09:20
09:251,1 °C 95 % - 0,0 mm 0,0 mm nein 1,6 km/h 6,4 km/h 0,0 mm/h O 0,000 klux 16,0 W/qm 0,0 nein 5,57 µg/m³ 3,88 µg/m³ 09:25
09:301,1 °C 95 % - 0,0 mm 0,0 mm nein 1,6 km/h 4,8 km/h 0,0 mm/h O 0,000 klux 15,0 W/qm 0,0 nein 5,18 µg/m³ 3,14 µg/m³ 09:30
09:351,1 °C 95 % - 0,0 mm 0,0 mm nein 1,6 km/h 4,8 km/h 0,0 mm/h O 0,000 klux 16,0 W/qm 0,0 nein 6,72 µg/m³ 4,28 µg/m³ 09:35
09:401,1 °C 95 % - 0,0 mm 0,0 mm nein 0,0 km/h 1,6 km/h 0,0 mm/h O 0,000 klux 20,0 W/qm 0,0 nein 4,89 µg/m³ 3,37 µg/m³ 09:40
09:451,1 °C 95 % - 0,0 mm 0,0 mm nein 1,6 km/h 6,4 km/h 0,0 mm/h O 0,000 klux 23,0 W/qm 0,0 nein 5,19 µg/m³ 3,50 µg/m³ 09:45
09:501,1 °C 95 % - 0,0 mm 0,0 mm nein 1,6 km/h 3,2 km/h 0,0 mm/h O 0,000 klux 27,0 W/qm 0,0 nein 6,00 µg/m³ 4,01 µg/m³ 09:50
09:551,1 °C 95 % - 0,0 mm 0,0 mm nein 1,6 km/h 4,8 km/h 0,0 mm/h O 0,000 klux 27,0 W/qm 0,0 nein 5,46 µg/m³ 3,64 µg/m³ 09:55
UhrzeitTemperaturFeuchteLuftdruckNiederschlagEvapotranspirationNiederschlag?WindWindböenRegenrateWindrichtungHelligkeitSolarstrahlungUV-IndexSonne?Feinstaub 10µmFeinstaub 2,5µmUhrzeit
10:001,1 °C 95 % - 0,0 mm 0,0 mm nein 1,6 km/h 4,8 km/h 0,0 mm/h O 0,000 klux 32,0 W/qm 0,0 nein 7,79 µg/m³ 4,64 µg/m³ 10:00
10:051,1 °C 95 % - 0,0 mm 0,0 mm nein 1,6 km/h 3,2 km/h 0,0 mm/h O 0,000 klux 35,0 W/qm 0,0 nein 6,98 µg/m³ 4,43 µg/m³ 10:05
10:101,1 °C 95 % - 0,0 mm 0,0 mm nein 0,0 km/h 3,2 km/h 0,0 mm/h O 0,000 klux 41,0 W/qm 0,0 nein 6,84 µg/m³ 4,26 µg/m³ 10:10
10:151,1 °C 95 % - 0,0 mm 0,0 mm nein 1,6 km/h 6,4 km/h 0,0 mm/h O 0,000 klux 42,0 W/qm 0,0 nein 10,10 µg/m³ 5,71 µg/m³ 10:15
10:201,7 °C 95 % - 0,0 mm 0,0 mm nein 1,6 km/h 4,8 km/h 0,0 mm/h SO 0,000 klux 42,0 W/qm 0,0 nein 11,88 µg/m³ 5,78 µg/m³ 10:20
10:251,7 °C 95 % - 0,0 mm 0,0 mm nein 1,6 km/h 6,4 km/h 0,0 mm/h SO 0,000 klux 38,0 W/qm 0,0 nein 12,03 µg/m³ 5,93 µg/m³ 10:25
10:301,7 °C 95 % - 0,0 mm 0,0 mm nein 1,6 km/h 6,4 km/h 0,0 mm/h S 0,000 klux 30,0 W/qm 0,0 nein 10,58 µg/m³ 5,75 µg/m³ 10:30
10:351,7 °C 95 % - 0,0 mm 0,0 mm nein 3,2 km/h 8,0 km/h 0,0 mm/h SSO 0,000 klux 34,0 W/qm 0,0 nein 12,25 µg/m³ 6,31 µg/m³ 10:35
10:401,7 °C 95 % - 0,0 mm 0,0 mm nein 1,6 km/h 4,8 km/h 0,0 mm/h SSO 0,000 klux 34,0 W/qm 0,0 nein 10,90 µg/m³ 5,62 µg/m³ 10:40
10:451,7 °C 95 % - 0,0 mm 0,0 mm nein 1,6 km/h 6,4 km/h 0,0 mm/h SSO 0,000 klux 38,0 W/qm 0,0 nein 11,36 µg/m³ 5,83 µg/m³ 10:45
10:501,7 °C 95 % - 0,0 mm 0,0 mm nein 1,6 km/h 6,4 km/h 0,0 mm/h SSO 0,000 klux 39,0 W/qm 0,0 nein 11,01 µg/m³ 5,81 µg/m³ 10:50
10:551,7 °C 95 % - 0,0 mm 0,0 mm nein 3,2 km/h 11,3 km/h 0,0 mm/h SO 0,000 klux 41,0 W/qm 0,0 nein 10,83 µg/m³ 5,75 µg/m³ 10:55
11:001,7 °C 95 % - 0,0 mm 0,0 mm nein 3,2 km/h 9,7 km/h 0,0 mm/h SSO 0,000 klux 41,0 W/qm 0,0 nein 12,47 µg/m³ 6,17 µg/m³ 11:00
11:051,7 °C 95 % - 0,0 mm 0,0 mm nein 3,2 km/h 9,7 km/h 0,0 mm/h SSO 0,000 klux 41,0 W/qm 0,0 nein 11,17 µg/m³ 5,82 µg/m³ 11:05
11:101,7 °C 95 % - 0,0 mm 0,0 mm nein 4,8 km/h 12,9 km/h 0,0 mm/h SO 0,000 klux 39,0 W/qm 0,0 nein 12,69 µg/m³ 6,26 µg/m³ 11:10
11:151,7 °C 94 % - 0,0 mm 0,0 mm nein 4,8 km/h 9,7 km/h 0,0 mm/h SO 0,000 klux 38,0 W/qm 0,0 nein 14,40 µg/m³ 7,13 µg/m³ 11:15
11:201,7 °C 94 % - 0,0 mm 0,0 mm nein 1,6 km/h 4,8 km/h 0,0 mm/h OSO 0,000 klux 40,0 W/qm 0,0 nein 13,86 µg/m³ 6,76 µg/m³ 11:20
11:251,7 °C 94 % - 0,0 mm 0,0 mm nein 4,8 km/h 11,3 km/h 0,0 mm/h SO 0,000 klux 43,0 W/qm 0,0 nein 13,91 µg/m³ 7,11 µg/m³ 11:25
11:301,7 °C 94 % - 0,0 mm 0,0 mm nein 4,8 km/h 9,7 km/h 0,0 mm/h SO 0,000 klux 44,0 W/qm 0,0 nein 17,28 µg/m³ 9,21 µg/m³ 11:30
11:351,7 °C 94 % - 0,0 mm 0,0 mm nein 3,2 km/h 8,0 km/h 0,0 mm/h OSO 0,000 klux 44,0 W/qm 0,0 nein 15,86 µg/m³ 8,08 µg/m³ 11:35
11:401,7 °C 94 % - 0,0 mm 0,0 mm nein 1,6 km/h 8,0 km/h 0,0 mm/h SSO 0,000 klux 46,0 W/qm 0,0 nein 17,23 µg/m³ 8,70 µg/m³ 11:40
11:451,7 °C 94 % - 0,0 mm 0,0 mm nein 3,2 km/h 6,4 km/h 0,0 mm/h SO 0,000 klux 50,0 W/qm 0,0 nein 15,52 µg/m³ 9,07 µg/m³ 11:45
11:501,7 °C 94 % - 0,0 mm 0,0 mm nein 3,2 km/h 6,4 km/h 0,0 mm/h SO 0,000 klux 61,0 W/qm 0,0 nein 15,57 µg/m³ 7,87 µg/m³ 11:50
11:551,7 °C 94 % - 0,0 mm 0,0 mm nein 3,2 km/h 9,7 km/h 0,0 mm/h OSO 0,000 klux 65,0 W/qm 0,0 nein 16,15 µg/m³ 8,24 µg/m³ 11:55
UhrzeitTemperaturFeuchteLuftdruckNiederschlagEvapotranspirationNiederschlag?WindWindböenRegenrateWindrichtungHelligkeitSolarstrahlungUV-IndexSonne?Feinstaub 10µmFeinstaub 2,5µmUhrzeit
12:001,7 °C 94 % - 0,0 mm 0,0 mm nein 3,2 km/h 6,4 km/h 0,0 mm/h SO 0,000 klux 77,0 W/qm 0,0 nein 15,90 µg/m³ 7,90 µg/m³ 12:00
12:051,7 °C 94 % - 0,0 mm 0,0 mm nein 1,6 km/h 4,8 km/h 0,0 mm/h SO 0,000 klux 74,0 W/qm 0,0 nein 14,82 µg/m³ 7,90 µg/m³ 12:05
12:101,7 °C 94 % - 0,0 mm 0,0 mm nein 1,6 km/h 8,0 km/h 0,0 mm/h SSO 0,000 klux 76,0 W/qm 0,0 nein 14,21 µg/m³ 6,92 µg/m³ 12:10
12:151,7 °C 94 % - 0,0 mm 0,0 mm nein 1,6 km/h 8,0 km/h 0,0 mm/h SO 0,000 klux 76,0 W/qm 0,0 nein 14,40 µg/m³ 7,33 µg/m³ 12:15
12:201,7 °C 94 % - 0,0 mm 0,0 mm nein 3,2 km/h 11,3 km/h 0,0 mm/h SO 0,000 klux 65,0 W/qm 0,0 nein 12,45 µg/m³ 6,53 µg/m³ 12:20
12:251,7 °C 94 % - 0,0 mm 0,0 mm nein 1,6 km/h 9,7 km/h 0,0 mm/h SO 0,000 klux 50,0 W/qm 0,0 nein 12,38 µg/m³ 6,55 µg/m³ 12:25
12:301,7 °C 94 % - 0,0 mm 0,0 mm nein 1,6 km/h 4,8 km/h 0,0 mm/h OSO 0,000 klux 48,0 W/qm 0,0 nein 13,66 µg/m³ 7,53 µg/m³ 12:30
12:351,7 °C 94 % - 0,0 mm 0,0 mm nein 1,6 km/h 6,4 km/h 0,0 mm/h OSO 0,000 klux 47,0 W/qm 0,0 nein 12,84 µg/m³ 7,82 µg/m³ 12:35
12:401,7 °C 94 % - 0,0 mm 0,0 mm nein 1,6 km/h 4,8 km/h 0,0 mm/h OSO 0,000 klux 52,0 W/qm 0,0 nein 12,86 µg/m³ 6,81 µg/m³ 12:40
12:451,7 °C 94 % - 0,0 mm 0,0 mm nein 3,2 km/h 11,3 km/h 0,0 mm/h OSO 0,000 klux 51,0 W/qm 0,0 nein 13,02 µg/m³ 6,94 µg/m³ 12:45
12:501,7 °C 94 % - 0,0 mm 0,0 mm nein 3,2 km/h 8,0 km/h 0,0 mm/h OSO 0,000 klux 51,0 W/qm 0,0 nein 13,97 µg/m³ 7,52 µg/m³ 12:50
12:551,7 °C 94 % - 0,0 mm 0,0 mm nein 3,2 km/h 9,7 km/h 0,0 mm/h OSO 0,000 klux 55,0 W/qm 0,0 nein 14,30 µg/m³ 7,35 µg/m³ 12:55
13:001,7 °C 94 % - 0,0 mm 0,0 mm nein 3,2 km/h 9,7 km/h 0,0 mm/h OSO 0,000 klux 55,0 W/qm 0,0 nein 12,50 µg/m³ 6,84 µg/m³ 13:00
13:051,7 °C 94 % - 0,0 mm 0,0 mm nein 1,6 km/h 4,8 km/h 0,0 mm/h OSO 0,000 klux 54,0 W/qm 0,0 nein 12,72 µg/m³ 6,58 µg/m³ 13:05
13:101,7 °C 94 % - 0,0 mm 0,0 mm nein 3,2 km/h 8,0 km/h 0,0 mm/h OSO 0,000 klux 46,0 W/qm 0,0 nein 12,81 µg/m³ 6,66 µg/m³ 13:10
13:151,7 °C 94 % - 0,2 mm 0,0 mm ja 1,6 km/h 6,4 km/h 0,0 mm/h OSO 0,000 klux 53,0 W/qm 0,0 nein 11,77 µg/m³ 6,56 µg/m³ 13:15
13:201,7 °C 94 % - 0,0 mm 0,0 mm nein 3,2 km/h 6,4 km/h 0,0 mm/h SO 0,000 klux 55,0 W/qm 0,0 nein 12,06 µg/m³ 6,71 µg/m³ 13:20
13:251,7 °C 94 % - 0,0 mm 0,0 mm nein 3,2 km/h 9,7 km/h 0,0 mm/h SO 0,000 klux 45,0 W/qm 0,0 nein 12,22 µg/m³ 6,52 µg/m³ 13:25
13:301,7 °C 94 % - 0,0 mm 0,0 mm nein 1,6 km/h 4,8 km/h 0,0 mm/h SO 0,000 klux 48,0 W/qm 0,0 nein 12,81 µg/m³ 6,84 µg/m³ 13:30
13:351,7 °C 94 % - 0,0 mm 0,0 mm nein 3,2 km/h 12,9 km/h 0,0 mm/h SO 0,000 klux 58,0 W/qm 0,0 nein 13,01 µg/m³ 6,45 µg/m³ 13:35
13:401,7 °C 94 % - 0,0 mm 0,0 mm nein 3,2 km/h 6,4 km/h 0,0 mm/h OSO 0,000 klux 53,0 W/qm 0,0 nein 14,48 µg/m³ 6,94 µg/m³ 13:40
13:451,7 °C 94 % - 0,0 mm 0,0 mm nein 4,8 km/h 9,7 km/h 0,0 mm/h OSO 0,000 klux 55,0 W/qm 0,0 nein 12,05 µg/m³ 6,26 µg/m³ 13:45
13:501,7 °C 94 % - 0,0 mm 0,0 mm nein 4,8 km/h 11,3 km/h 0,0 mm/h OSO 0,000 klux 52,0 W/qm 0,0 nein 13,66 µg/m³ 6,91 µg/m³ 13:50
13:551,7 °C 93 % - 0,0 mm 0,0 mm nein 4,8 km/h 11,3 km/h 0,0 mm/h OSO 0,000 klux 57,0 W/qm 0,0 nein 12,86 µg/m³ 6,66 µg/m³ 13:55
UhrzeitTemperaturFeuchteLuftdruckNiederschlagEvapotranspirationNiederschlag?WindWindböenRegenrateWindrichtungHelligkeitSolarstrahlungUV-IndexSonne?Feinstaub 10µmFeinstaub 2,5µmUhrzeit
14:001,7 °C 93 % - 0,0 mm 0,0 mm nein 4,8 km/h 9,7 km/h 0,0 mm/h OSO 0,000 klux 41,0 W/qm 0,0 nein 13,52 µg/m³ 6,91 µg/m³ 14:00
14:051,1 °C 93 % - 0,0 mm 0,0 mm nein 3,2 km/h 8,0 km/h 0,0 mm/h OSO 0,000 klux 37,0 W/qm 0,0 nein 13,93 µg/m³ 7,06 µg/m³ 14:05
14:101,1 °C 94 % - 0,0 mm 0,0 mm nein 3,2 km/h 6,4 km/h 0,0 mm/h OSO 0,000 klux 34,0 W/qm 0,0 nein 13,16 µg/m³ 6,93 µg/m³ 14:10
14:151,1 °C 94 % - 0,2 mm 0,0 mm ja 3,2 km/h 6,4 km/h 0,0 mm/h OSO 0,000 klux 40,0 W/qm 0,0 nein 13,23 µg/m³ 6,91 µg/m³ 14:15
14:201,1 °C 94 % - 0,0 mm 0,0 mm nein 1,6 km/h 6,4 km/h 0,0 mm/h SO 0,000 klux 46,0 W/qm 0,0 nein 12,36 µg/m³ 6,32 µg/m³ 14:20
14:251,1 °C 94 % - 0,0 mm 0,0 mm nein 1,6 km/h 4,8 km/h 0,0 mm/h OSO 0,000 klux 39,0 W/qm 0,0 nein 11,71 µg/m³ 6,21 µg/m³ 14:25
14:301,1 °C 94 % - 0,0 mm 0,0 mm nein 3,2 km/h 6,4 km/h 0,0 mm/h OSO 0,000 klux 39,0 W/qm 0,0 nein 12,72 µg/m³ 6,58 µg/m³ 14:30
14:351,1 °C 94 % - 0,0 mm 0,0 mm nein 1,6 km/h 4,8 km/h 0,0 mm/h OSO 0,000 klux 30,0 W/qm 0,0 nein 13,19 µg/m³ 6,70 µg/m³ 14:35
14:401,1 °C 94 % - 0,0 mm 0,0 mm nein 1,6 km/h 4,8 km/h 0,0 mm/h SSO 0,000 klux 23,0 W/qm 0,0 nein 11,96 µg/m³ 7,34 µg/m³ 14:40
14:451,1 °C 94 % - 0,2 mm 0,0 mm ja 1,6 km/h 4,8 km/h 0,0 mm/h O 0,000 klux 22,0 W/qm 0,0 nein 12,77 µg/m³ 7,39 µg/m³ 14:45
14:501,1 °C 94 % - 0,0 mm 0,0 mm nein 1,6 km/h 6,4 km/h 0,0 mm/h OSO 0,000 klux 19,0 W/qm 0,0 nein 10,94 µg/m³ 6,07 µg/m³ 14:50
14:551,1 °C 94 % - 0,0 mm 0,0 mm nein 1,6 km/h 4,8 km/h 0,0 mm/h SO 0,000 klux 18,0 W/qm 0,0 nein 11,21 µg/m³ 6,30 µg/m³ 14:55
15:001,1 °C 94 % - 0,0 mm 0,0 mm nein 3,2 km/h 9,7 km/h 0,0 mm/h SO 0,000 klux 23,0 W/qm 0,0 nein 13,09 µg/m³ 7,20 µg/m³ 15:00
15:051,1 °C 94 % - 0,0 mm 0,0 mm nein 1,6 km/h 6,4 km/h 0,0 mm/h SO 0,000 klux 21,0 W/qm 0,0 nein 14,38 µg/m³ 8,54 µg/m³ 15:05
15:101,1 °C 94 % - 0,0 mm 0,0 mm nein 1,6 km/h 6,4 km/h 0,0 mm/h SO 0,000 klux 20,0 W/qm 0,0 nein 10,28 µg/m³ 5,91 µg/m³ 15:10
15:151,1 °C 94 % - 0,0 mm 0,0 mm nein 3,2 km/h 4,8 km/h 0,0 mm/h OSO 0,000 klux 23,0 W/qm 0,0 nein 13,17 µg/m³ 7,65 µg/m³ 15:15
15:201,1 °C 94 % - 0,0 mm 0,0 mm nein 1,6 km/h 4,8 km/h 0,0 mm/h OSO 0,000 klux 23,0 W/qm 0,0 nein 12,07 µg/m³ 6,92 µg/m³ 15:20
15:251,1 °C 94 % - 0,0 mm 0,0 mm nein 1,6 km/h 4,8 km/h 0,0 mm/h OSO 0,000 klux 22,0 W/qm 0,0 nein 13,29 µg/m³ 7,39 µg/m³ 15:25
15:301,1 °C 94 % - 0,2 mm 0,0 mm ja 1,6 km/h 6,4 km/h 0,0 mm/h OSO 0,000 klux 23,0 W/qm 0,0 nein 12,82 µg/m³ 6,88 µg/m³ 15:30
15:351,1 °C 94 % - 0,0 mm 0,0 mm nein 1,6 km/h 9,7 km/h 0,0 mm/h OSO 0,000 klux 20,0 W/qm 0,0 nein 11,51 µg/m³ 6,45 µg/m³ 15:35
15:401,1 °C 94 % - 0,0 mm 0,0 mm nein 3,2 km/h 6,4 km/h 0,0 mm/h OSO 0,000 klux 15,0 W/qm 0,0 nein 11,62 µg/m³ 6,39 µg/m³ 15:40
15:451,1 °C 94 % - 0,0 mm 0,0 mm nein 3,2 km/h 6,4 km/h 0,0 mm/h SSO 0,000 klux 13,0 W/qm 0,0 nein 10,00 µg/m³ 5,85 µg/m³ 15:45
15:500,6 °C 94 % - 0,0 mm 0,0 mm nein 1,6 km/h 4,8 km/h 0,0 mm/h SO 0,000 klux 11,0 W/qm 0,0 nein 13,28 µg/m³ 7,24 µg/m³ 15:50
15:550,6 °C 94 % - 0,0 mm 0,0 mm nein 3,2 km/h 11,3 km/h 0,0 mm/h SO 0,000 klux 7,0 W/qm 0,0 nein 10,74 µg/m³ 6,00 µg/m³ 15:55
UhrzeitTemperaturFeuchteLuftdruckNiederschlagEvapotranspirationNiederschlag?WindWindböenRegenrateWindrichtungHelligkeitSolarstrahlungUV-IndexSonne?Feinstaub 10µmFeinstaub 2,5µmUhrzeit
16:000,6 °C 94 % - 0,0 mm 0,0 mm nein 1,6 km/h 4,8 km/h 0,0 mm/h OSO 0,000 klux 7,0 W/qm 0,0 nein 10,88 µg/m³ 5,90 µg/m³ 16:00
16:050,6 °C 94 % - 0,0 mm 0,0 mm nein 1,6 km/h 4,8 km/h 0,0 mm/h OSO 0,000 klux 7,0 W/qm 0,0 nein 12,81 µg/m³ 6,71 µg/m³ 16:05
16:100,6 °C 94 % - 0,0 mm 0,0 mm nein 1,6 km/h 6,4 km/h 0,0 mm/h OSO 0,000 klux 5,0 W/qm 0,0 nein 12,30 µg/m³ 6,52 µg/m³ 16:10
16:150,6 °C 94 % - 0,0 mm 0,0 mm nein 1,6 km/h 6,4 km/h 0,0 mm/h SO 0,000 klux 3,0 W/qm 0,0 nein 12,76 µg/m³ 7,35 µg/m³ 16:15
16:200,6 °C 94 % - 0,0 mm 0,0 mm nein 1,6 km/h 3,2 km/h 0,0 mm/h SO 0,000 klux 0,0 W/qm 0,0 nein 11,06 µg/m³ 6,26 µg/m³ 16:20
16:250,6 °C 94 % - 0,0 mm 0,0 mm nein 1,6 km/h 11,3 km/h 0,0 mm/h SO 0,000 klux 0,0 W/qm 0,0 nein 11,80 µg/m³ 6,20 µg/m³ 16:25
16:300,6 °C 94 % - 0,0 mm 0,0 mm nein 1,6 km/h 9,7 km/h 0,0 mm/h SO 0,000 klux 0,0 W/qm 0,0 nein 11,63 µg/m³ 6,15 µg/m³ 16:30
16:350,6 °C 94 % - 0,0 mm 0,0 mm nein 1,6 km/h 4,8 km/h 0,0 mm/h SO 0,000 klux 0,0 W/qm 0,0 nein 14,94 µg/m³ 7,88 µg/m³ 16:35
16:400,6 °C 94 % - 0,0 mm 0,0 mm nein 0,0 km/h 0,0 km/h 0,0 mm/h N 0,000 klux 0,0 W/qm 0,0 nein 12,18 µg/m³ 6,73 µg/m³ 16:40
16:450,6 °C 94 % - 0,0 mm 0,0 mm nein 1,6 km/h 4,8 km/h 0,0 mm/h OSO 0,000 klux 0,0 W/qm 0,0 nein 14,20 µg/m³ 7,56 µg/m³ 16:45
16:500,6 °C 94 % - 0,0 mm 0,0 mm nein 1,6 km/h 4,8 km/h 0,0 mm/h OSO 0,000 klux 0,0 W/qm 0,0 nein 17,17 µg/m³ 9,08 µg/m³ 16:50
16:550,6 °C 94 % - 0,0 mm 0,0 mm nein 1,6 km/h 4,8 km/h 0,0 mm/h SO 0,000 klux 0,0 W/qm 0,0 nein 11,80 µg/m³ 6,78 µg/m³ 16:55
17:000,6 °C 94 % - 0,0 mm 0,0 mm nein 1,6 km/h 4,8 km/h 0,0 mm/h SO 0,000 klux 0,0 W/qm 0,0 nein 11,38 µg/m³ 5,79 µg/m³ 17:00
17:050,6 °C 94 % - 0,0 mm 0,0 mm nein 1,6 km/h 6,4 km/h 0,0 mm/h SO 0,000 klux 0,0 W/qm 0,0 nein 12,00 µg/m³ 6,90 µg/m³ 17:05
17:100,6 °C 94 % - 0,0 mm 0,0 mm nein 1,6 km/h 3,2 km/h 0,0 mm/h OSO 0,000 klux 0,0 W/qm 0,0 nein 15,34 µg/m³ 8,92 µg/m³ 17:10
17:150,6 °C 94 % - 0,0 mm 0,0 mm nein 1,6 km/h 4,8 km/h 0,0 mm/h OSO 0,000 klux 0,0 W/qm 0,0 nein 15,01 µg/m³ 8,94 µg/m³ 17:15
17:200,6 °C 95 % - 0,0 mm 0,0 mm nein 1,6 km/h 4,8 km/h 0,0 mm/h OSO 0,000 klux 0,0 W/qm 0,0 nein 14,29 µg/m³ 8,37 µg/m³ 17:20
17:250,6 °C 95 % - 0,0 mm 0,0 mm nein 1,6 km/h 6,4 km/h 0,0 mm/h SO 0,000 klux 0,0 W/qm 0,0 nein 13,22 µg/m³ 8,00 µg/m³ 17:25
17:300,6 °C 95 % - 0,0 mm 0,0 mm nein 1,6 km/h 6,4 km/h 0,0 mm/h SSO 0,000 klux 0,0 W/qm 0,0 nein 15,06 µg/m³ 9,07 µg/m³ 17:30
17:350,6 °C 95 % - 0,0 mm 0,0 mm nein 1,6 km/h 6,4 km/h 0,0 mm/h SO 0,000 klux 0,0 W/qm 0,0 nein 18,49 µg/m³ 10,58 µg/m³ 17:35
17:400,6 °C 95 % - 0,0 mm 0,0 mm nein 1,6 km/h 6,4 km/h 0,0 mm/h OSO 0,000 klux 0,0 W/qm 0,0 nein 17,60 µg/m³ 10,48 µg/m³ 17:40
17:450,6 °C 95 % - 0,0 mm 0,0 mm nein 1,6 km/h 3,2 km/h 0,0 mm/h OSO 0,000 klux 0,0 W/qm 0,0 nein 14,89 µg/m³ 8,78 µg/m³ 17:45
17:500,6 °C 95 % - 0,0 mm 0,0 mm nein 1,6 km/h 6,4 km/h 0,0 mm/h OSO 0,000 klux 0,0 W/qm 0,0 nein 15,21 µg/m³ 8,87 µg/m³ 17:50
17:550,6 °C 95 % - 0,0 mm 0,0 mm nein 1,6 km/h 6,4 km/h 0,0 mm/h OSO 0,000 klux 0,0 W/qm 0,0 nein 15,14 µg/m³ 8,47 µg/m³ 17:55
UhrzeitTemperaturFeuchteLuftdruckNiederschlagEvapotranspirationNiederschlag?WindWindböenRegenrateWindrichtungHelligkeitSolarstrahlungUV-IndexSonne?Feinstaub 10µmFeinstaub 2,5µmUhrzeit
18:000,6 °C 95 % - 0,0 mm 0,0 mm nein 1,6 km/h 3,2 km/h 0,0 mm/h OSO 0,000 klux 0,0 W/qm 0,0 nein 15,93 µg/m³ 8,27 µg/m³ 18:00
18:050,6 °C 95 % - 0,0 mm 0,0 mm nein 3,2 km/h 6,4 km/h 0,0 mm/h SO 0,000 klux 0,0 W/qm 0,0 nein 14,74 µg/m³ 8,09 µg/m³ 18:05
18:100,6 °C 95 % - 0,0 mm 0,0 mm nein 1,6 km/h 4,8 km/h 0,0 mm/h SO 0,000 klux 0,0 W/qm 0,0 nein 15,24 µg/m³ 8,66 µg/m³ 18:10
18:150,6 °C 95 % - 0,0 mm 0,0 mm nein 1,6 km/h 6,4 km/h 0,0 mm/h OSO 0,000 klux 0,0 W/qm 0,0 nein 11,87 µg/m³ 6,55 µg/m³ 18:15
18:200,6 °C 95 % - 0,0 mm 0,0 mm nein 1,6 km/h 4,8 km/h 0,0 mm/h OSO 0,000 klux 0,0 W/qm 0,0 nein 14,08 µg/m³ 8,11 µg/m³ 18:20
18:250,6 °C 95 % - 0,0 mm 0,0 mm nein 1,6 km/h 3,2 km/h 0,0 mm/h OSO 0,000 klux 0,0 W/qm 0,0 nein 12,26 µg/m³ 6,54 µg/m³ 18:25
18:300,0 °C 95 % - 0,0 mm 0,0 mm nein 1,6 km/h 4,8 km/h 0,0 mm/h OSO 0,000 klux 0,0 W/qm 0,0 nein 20,87 µg/m³ 11,56 µg/m³ 18:30
18:350,0 °C 95 % - 0,0 mm 0,0 mm nein 0,0 km/h 3,2 km/h 0,0 mm/h OSO 0,000 klux 0,0 W/qm 0,0 nein 19,68 µg/m³ 10,62 µg/m³ 18:35
18:400,0 °C 95 % - 0,0 mm 0,0 mm nein 0,0 km/h 3,2 km/h 0,0 mm/h OSO 0,000 klux 0,0 W/qm 0,0 nein 11,48 µg/m³ 7,23 µg/m³ 18:40
18:450,0 °C 95 % - 0,0 mm 0,0 mm nein 1,6 km/h 4,8 km/h 0,0 mm/h OSO 0,000 klux 0,0 W/qm 0,0 nein 9,34 µg/m³ 5,99 µg/m³ 18:45
18:500,0 °C 95 % - 0,0 mm 0,0 mm nein 1,6 km/h 3,2 km/h 0,0 mm/h OSO 0,000 klux 0,0 W/qm 0,0 nein 12,30 µg/m³ 6,88 µg/m³ 18:50
18:550,0 °C 95 % - 0,0 mm 0,0 mm nein 1,6 km/h 4,8 km/h 0,0 mm/h OSO 0,000 klux 0,0 W/qm 0,0 nein 12,23 µg/m³ 7,85 µg/m³ 18:55
19:000,0 °C 95 % - 0,0 mm 0,0 mm nein 0,0 km/h 3,2 km/h 0,0 mm/h OSO 0,000 klux 0,0 W/qm 0,0 nein 12,14 µg/m³ 7,42 µg/m³ 19:00
19:050,0 °C 95 % - 0,0 mm 0,0 mm nein 1,6 km/h 3,2 km/h 0,0 mm/h OSO 0,000 klux 0,0 W/qm 0,0 nein 10,79 µg/m³ 6,71 µg/m³ 19:05
19:100,0 °C 95 % - 0,0 mm 0,0 mm nein 1,6 km/h 6,4 km/h 0,0 mm/h OSO 0,000 klux 0,0 W/qm 0,0 nein 9,86 µg/m³ 5,55 µg/m³ 19:10
19:150,0 °C 95 % - 0,0 mm 0,0 mm nein 1,6 km/h 3,2 km/h 0,0 mm/h OSO 0,000 klux 0,0 W/qm 0,0 nein 11,23 µg/m³ 6,51 µg/m³ 19:15
19:200,0 °C 95 % - 0,0 mm 0,0 mm nein 0,0 km/h 3,2 km/h 0,0 mm/h OSO 0,000 klux 0,0 W/qm 0,0 nein 13,12 µg/m³ 6,86 µg/m³ 19:20
19:250,0 °C 95 % - 0,0 mm 0,0 mm nein 1,6 km/h 6,4 km/h 0,0 mm/h OSO 0,000 klux 0,0 W/qm 0,0 nein 10,10 µg/m³ 5,95 µg/m³ 19:25
19:300,0 °C 95 % - 0,0 mm 0,0 mm nein 1,6 km/h 4,8 km/h 0,0 mm/h OSO 0,000 klux 0,0 W/qm 0,0 nein 12,28 µg/m³ 6,89 µg/m³ 19:30
19:350,0 °C 95 % - 0,0 mm 0,0 mm nein 1,6 km/h 3,2 km/h 0,0 mm/h OSO 0,000 klux 0,0 W/qm 0,0 nein 12,34 µg/m³ 6,61 µg/m³ 19:35
19:400,0 °C 95 % - 0,0 mm 0,0 mm nein 1,6 km/h 6,4 km/h 0,0 mm/h OSO 0,000 klux 0,0 W/qm 0,0 nein 11,17 µg/m³ 6,14 µg/m³ 19:40
19:450,0 °C 95 % - 0,0 mm 0,0 mm nein 1,6 km/h 4,8 km/h 0,0 mm/h OSO 0,000 klux 0,0 W/qm 0,0 nein 9,60 µg/m³ 5,86 µg/m³ 19:45
19:500,0 °C 95 % - 0,0 mm 0,0 mm nein 1,6 km/h 4,8 km/h 0,0 mm/h OSO 0,000 klux 0,0 W/qm 0,0 nein 9,29 µg/m³ 5,48 µg/m³ 19:50
19:550,0 °C 95 % - 0,0 mm 0,0 mm nein 0,0 km/h 4,8 km/h 0,0 mm/h OSO 0,000 klux 0,0 W/qm 0,0 nein 11,82 µg/m³ 7,09 µg/m³ 19:55
UhrzeitTemperaturFeuchteLuftdruckNiederschlagEvapotranspirationNiederschlag?WindWindböenRegenrateWindrichtungHelligkeitSolarstrahlungUV-IndexSonne?Feinstaub 10µmFeinstaub 2,5µmUhrzeit
20:000,0 °C 95 % - 0,0 mm 0,0 mm nein 1,6 km/h 4,8 km/h 0,0 mm/h OSO 0,000 klux 0,0 W/qm 0,0 nein 12,72 µg/m³ 7,80 µg/m³ 20:00
20:050,0 °C 95 % - 0,0 mm 0,0 mm nein 0,0 km/h 4,8 km/h 0,0 mm/h OSO 0,000 klux 0,0 W/qm 0,0 nein 10,99 µg/m³ 6,37 µg/m³ 20:05
20:100,0 °C 95 % - 0,0 mm 0,0 mm nein 0,0 km/h 3,2 km/h 0,0 mm/h OSO 0,000 klux 0,0 W/qm 0,0 nein 9,95 µg/m³ 5,91 µg/m³ 20:10
20:150,0 °C 95 % - 0,0 mm 0,0 mm nein 1,6 km/h 4,8 km/h 0,0 mm/h OSO 0,000 klux 0,0 W/qm 0,0 nein 11,54 µg/m³ 6,80 µg/m³ 20:15
20:200,0 °C 95 % - 0,0 mm 0,0 mm nein 0,0 km/h 1,6 km/h 0,0 mm/h SO 0,000 klux 0,0 W/qm 0,0 nein 10,60 µg/m³ 6,06 µg/m³ 20:20
20:250,0 °C 95 % - 0,0 mm 0,0 mm nein 1,6 km/h 4,8 km/h 0,0 mm/h SO 0,000 klux 0,0 W/qm 0,0 nein 11,79 µg/m³ 6,89 µg/m³ 20:25
20:300,0 °C 95 % - 0,0 mm 0,0 mm nein 0,0 km/h 4,8 km/h 0,0 mm/h SO 0,000 klux 0,0 W/qm 0,0 nein 8,45 µg/m³ 5,11 µg/m³ 20:30
20:350,0 °C 95 % - 0,0 mm 0,0 mm nein 1,6 km/h 4,8 km/h 0,0 mm/h SO 0,000 klux 0,0 W/qm 0,0 nein 11,63 µg/m³ 7,06 µg/m³ 20:35
20:400,0 °C 95 % - 0,0 mm 0,0 mm nein 3,2 km/h 6,4 km/h 0,0 mm/h SO 0,000 klux 0,0 W/qm 0,0 nein 11,48 µg/m³ 6,42 µg/m³ 20:40
20:450,0 °C 95 % - 0,0 mm 0,0 mm nein 1,6 km/h 4,8 km/h 0,0 mm/h SO 0,000 klux 0,0 W/qm 0,0 nein 10,64 µg/m³ 6,16 µg/m³ 20:45
20:500,0 °C 95 % - 0,0 mm 0,0 mm nein 0,0 km/h 3,2 km/h 0,0 mm/h SO 0,000 klux 0,0 W/qm 0,0 nein 11,79 µg/m³ 6,66 µg/m³ 20:50
20:550,0 °C 95 % - 0,0 mm 0,0 mm nein 3,2 km/h 6,4 km/h 0,0 mm/h OSO 0,000 klux 0,0 W/qm 0,0 nein 13,41 µg/m³ 6,60 µg/m³ 20:55
21:000,0 °C 95 % - 0,0 mm 0,0 mm nein 1,6 km/h 6,4 km/h 0,0 mm/h SO 0,000 klux 0,0 W/qm 0,0 nein 15,96 µg/m³ 7,83 µg/m³ 21:00
21:050,0 °C 95 % - 0,0 mm 0,0 mm nein 1,6 km/h 4,8 km/h 0,0 mm/h OSO 0,000 klux 0,0 W/qm 0,0 nein 13,12 µg/m³ 7,61 µg/m³ 21:05
21:100,0 °C 95 % - 0,0 mm 0,0 mm nein 1,6 km/h 6,4 km/h 0,0 mm/h OSO 0,000 klux 0,0 W/qm 0,0 nein 13,91 µg/m³ 6,84 µg/m³ 21:10
21:150,0 °C 95 % - 0,0 mm 0,0 mm nein 0,0 km/h 4,8 km/h 0,0 mm/h OSO 0,000 klux 0,0 W/qm 0,0 nein 14,00 µg/m³ 6,18 µg/m³ 21:15
21:200,0 °C 95 % - 0,0 mm 0,0 mm nein 0,0 km/h 4,8 km/h 0,0 mm/h OSO 0,000 klux 0,0 W/qm 0,0 nein 12,41 µg/m³ 6,24 µg/m³ 21:20
21:250,0 °C 95 % - 0,0 mm 0,0 mm nein 1,6 km/h 4,8 km/h 0,0 mm/h OSO 0,000 klux 0,0 W/qm 0,0 nein 13,07 µg/m³ 6,66 µg/m³ 21:25
21:300,0 °C 95 % - 0,0 mm 0,0 mm nein 0,0 km/h 3,2 km/h 0,0 mm/h OSO 0,000 klux 0,0 W/qm 0,0 nein 13,42 µg/m³ 7,20 µg/m³ 21:30
21:350,0 °C 95 % - 0,0 mm 0,0 mm nein 1,6 km/h 4,8 km/h 0,0 mm/h OSO 0,000 klux 0,0 W/qm 0,0 nein 11,31 µg/m³ 6,39 µg/m³ 21:35
21:400,0 °C 95 % - 0,0 mm 0,0 mm nein 1,6 km/h 4,8 km/h 0,0 mm/h OSO 0,000 klux 0,0 W/qm 0,0 nein 13,57 µg/m³ 6,64 µg/m³ 21:40
21:450,0 °C 95 % - 0,0 mm 0,0 mm nein 1,6 km/h 3,2 km/h 0,0 mm/h SO 0,000 klux 0,0 W/qm 0,0 nein 12,14 µg/m³ 5,71 µg/m³ 21:45
21:500,0 °C 95 % - 0,0 mm 0,0 mm nein 1,6 km/h 6,4 km/h 0,0 mm/h SO 0,000 klux 0,0 W/qm 0,0 nein 10,77 µg/m³ 5,86 µg/m³ 21:50
21:550,0 °C 95 % - 0,0 mm 0,0 mm nein 1,6 km/h 4,8 km/h 0,0 mm/h OSO 0,000 klux 0,0 W/qm 0,0 nein 10,59 µg/m³ 5,75 µg/m³ 21:55
UhrzeitTemperaturFeuchteLuftdruckNiederschlagEvapotranspirationNiederschlag?WindWindböenRegenrateWindrichtungHelligkeitSolarstrahlungUV-IndexSonne?Feinstaub 10µmFeinstaub 2,5µmUhrzeit
22:000,0 °C 96 % - 0,0 mm 0,0 mm nein 1,6 km/h 4,8 km/h 0,0 mm/h OSO 0,000 klux 0,0 W/qm 0,0 nein 9,96 µg/m³ 5,50 µg/m³ 22:00
22:050,0 °C 95 % - 0,0 mm 0,0 mm nein 1,6 km/h 6,4 km/h 0,0 mm/h OSO 0,000 klux 0,0 W/qm 0,0 nein 13,69 µg/m³ 7,70 µg/m³ 22:05
22:100,0 °C 96 % - 0,0 mm 0,0 mm nein 1,6 km/h 3,2 km/h 0,0 mm/h OSO 0,000 klux 0,0 W/qm 0,0 nein 8,62 µg/m³ 5,12 µg/m³ 22:10
22:150,0 °C 96 % - 0,0 mm 0,0 mm nein 1,6 km/h 4,8 km/h 0,0 mm/h OSO 0,000 klux 0,0 W/qm 0,0 nein 8,37 µg/m³ 5,20 µg/m³ 22:15
22:200,0 °C 96 % - 0,0 mm 0,0 mm nein 0,0 km/h 1,6 km/h 0,0 mm/h OSO 0,000 klux 0,0 W/qm 0,0 nein 11,51 µg/m³ 6,51 µg/m³ 22:20
22:250,0 °C 96 % - 0,0 mm 0,0 mm nein 1,6 km/h 4,8 km/h 0,0 mm/h OSO 0,000 klux 0,0 W/qm 0,0 nein 8,45 µg/m³ 5,03 µg/m³ 22:25
22:300,0 °C 96 % - 0,0 mm 0,0 mm nein 0,0 km/h 1,6 km/h 0,0 mm/h OSO 0,000 klux 0,0 W/qm 0,0 nein 11,91 µg/m³ 7,07 µg/m³ 22:30
22:350,0 °C 96 % - 0,0 mm 0,0 mm nein 0,0 km/h 3,2 km/h 0,0 mm/h OSO 0,000 klux 0,0 W/qm 0,0 nein 10,70 µg/m³ 5,74 µg/m³ 22:35
22:400,0 °C 96 % - 0,0 mm 0,0 mm nein 0,0 km/h 4,8 km/h 0,0 mm/h OSO 0,000 klux 0,0 W/qm 0,0 nein 8,75 µg/m³ 4,75 µg/m³ 22:40
22:450,0 °C 96 % - 0,0 mm 0,0 mm nein 0,0 km/h 3,2 km/h 0,0 mm/h OSO 0,000 klux 0,0 W/qm 0,0 nein 7,71 µg/m³ 4,36 µg/m³ 22:45
22:500,0 °C 96 % - 0,0 mm 0,0 mm nein 1,6 km/h 4,8 km/h 0,0 mm/h OSO 0,000 klux 0,0 W/qm 0,0 nein 8,21 µg/m³ 4,71 µg/m³ 22:50
22:550,0 °C 96 % - 0,0 mm 0,0 mm nein 1,6 km/h 3,2 km/h 0,0 mm/h OSO 0,000 klux 0,0 W/qm 0,0 nein 9,72 µg/m³ 5,52 µg/m³ 22:55
23:000,0 °C 96 % - 0,0 mm 0,0 mm nein 0,0 km/h 4,8 km/h 0,0 mm/h OSO 0,000 klux 0,0 W/qm 0,0 nein 9,94 µg/m³ 4,73 µg/m³ 23:00
23:050,0 °C 96 % - 0,0 mm 0,0 mm nein 0,0 km/h 3,2 km/h 0,0 mm/h OSO 0,000 klux 0,0 W/qm 0,0 nein 8,46 µg/m³ 4,70 µg/m³ 23:05
23:100,0 °C 96 % - 0,0 mm 0,0 mm nein 0,0 km/h 6,4 km/h 0,0 mm/h SO 0,000 klux 0,0 W/qm 0,0 nein 9,87 µg/m³ 5,51 µg/m³ 23:10
23:150,0 °C 96 % - 0,0 mm 0,0 mm nein 0,0 km/h 3,2 km/h 0,0 mm/h SO 0,000 klux 0,0 W/qm 0,0 nein 9,97 µg/m³ 5,38 µg/m³ 23:15
23:200,0 °C 96 % - 0,0 mm 0,0 mm nein 1,6 km/h 6,4 km/h 0,0 mm/h SO 0,000 klux 0,0 W/qm 0,0 nein 8,87 µg/m³ 4,95 µg/m³ 23:20
23:250,0 °C 96 % - 0,0 mm 0,0 mm nein 0,0 km/h 3,2 km/h 0,0 mm/h SO 0,000 klux 0,0 W/qm 0,0 nein 8,77 µg/m³ 5,04 µg/m³ 23:25
23:300,0 °C 96 % - 0,0 mm 0,0 mm nein 0,0 km/h 3,2 km/h 0,0 mm/h SO 0,000 klux 0,0 W/qm 0,0 nein 8,60 µg/m³ 4,55 µg/m³ 23:30
23:350,0 °C 96 % - 0,0 mm 0,0 mm nein 0,0 km/h 3,2 km/h 0,0 mm/h SO 0,000 klux 0,0 W/qm 0,0 nein 8,95 µg/m³ 4,72 µg/m³ 23:35
23:400,0 °C 96 % - 0,0 mm 0,0 mm nein 1,6 km/h 3,2 km/h 0,0 mm/h SO 0,000 klux 0,0 W/qm 0,0 nein 9,17 µg/m³ 5,29 µg/m³ 23:40
23:450,0 °C 96 % - 0,0 mm 0,0 mm nein 0,0 km/h 3,2 km/h 0,0 mm/h SO 0,000 klux 0,0 W/qm 0,0 nein 8,46 µg/m³ 5,03 µg/m³ 23:45
23:500,0 °C 96 % - 0,0 mm 0,0 mm nein 1,6 km/h 3,2 km/h 0,0 mm/h SO 0,000 klux 0,0 W/qm 0,0 nein 10,05 µg/m³ 5,78 µg/m³ 23:50
23:550,0 °C 96 % - 0,0 mm 0,0 mm nein 0,0 km/h 3,2 km/h 0,0 mm/h SO 0,000 klux 0,0 W/qm 0,0 nein 8,62 µg/m³ 4,60 µg/m³ 23:55
Gesamt: 1,3 °C 94 % nan hPa 1,2 mm 0,1 mm ja 1,9 km/h 5,9 km/h 0,0 mm/h 0 0,000 klux 11,4 W/qm 0,0 nein 10,70 µg/m³ 6,09 µg/m³

Insgesamt 288 Zeilen mal 16 Spalten = 4608 Werte werden angezeigt.

www.wetter-rosstal.de   •   www.wetter-franken.de   •   www.lightningmaps.org   •   Start   •   Kontakt / Datenschutz   •   PC-Kümmerer